EN

Hourly Weather Alwernia

Today, 17 January, Sunday

Time Temperature Precipitation Wind Pressure Humidity
00:00 -8°C° 0.5 mm 5 mps 735 mmHg 94%
01:00 -8°C° 0 mm 4 mps 735 mmHg 95%
02:00 -9°C° 0.4 mm 4 mps 735 mmHg 94%
03:00 -9°C° 0.4 mm 3 mps 735 mmHg 94%
04:00 -10°C° 0.4 mm 3 mps 735 mmHg 94%
05:00 -10°C° 0.1 mm 2 mps 735 mmHg 95%
06:00 -13°C° 0.1 mm 2 mps 736 mmHg 96%
07:00 -13°C° 0 mm 1 mps 736 mmHg 98%
08:00 -12°C° 0 mm 1 mps 736 mmHg 96%
09:00 -11°C° 0 mm 1 mps 737 mmHg 93%
10:00 -11°C° 0 mm 0 mps 738 mmHg 91%
11:00 -10°C° 0 mm 1 mps 738 mmHg 89%
12:00 -10°C° 0 mm 1 mps 738 mmHg 87%
13:00 -9°C° 0 mm 1 mps 738 mmHg 85%
14:00 -10°C° 0 mm 1 mps 738 mmHg 87%
15:00 -11°C° 0 mm 1 mps 739 mmHg 90%
16:00 -12°C° 0 mm 1 mps 739 mmHg 92%
17:00 -12°C° 0 mm 1 mps 739 mmHg 93%
18:00 -13°C° 0 mm 1 mps 740 mmHg 94%
19:00 -14°C° 0 mm 1 mps 740 mmHg 96%
20:00 -14°C° 0 mm 1 mps 740 mmHg 95%
21:00 -14°C° 0 mm 1 mps 741 mmHg 95%
22:00 -14°C° 0 mm 1 mps 741 mmHg 95%
23:00 -14°C° 0 mm 1 mps 741 mmHg 94%

Tomorrow, 18 January, Monday

Time Temperature Precipitation Wind Pressure Humidity
00:00 -14°C° 0 mm 1 mps 741 mmHg 94%
01:00 -15°C° 0 mm 1 mps 741 mmHg 93%
02:00 -15°C° 0 mm 1 mps 741 mmHg 93%
03:00 -15°C° 0 mm 1 mps 740 mmHg 93%
04:00 -16°C° 0 mm 1 mps 740 mmHg 94%
05:00 -15°C° 0 mm 1 mps 740 mmHg 93%
06:00 -15°C° 0 mm 1 mps 740 mmHg 92%
07:00 -15°C° 0 mm 1 mps 741 mmHg 91%
08:00 -14°C° 0 mm 1 mps 741 mmHg 88%
09:00 -12°C° 0 mm 0 mps 741 mmHg 85%
10:00 -10°C° 0 mm 0 mps 741 mmHg 83%
11:00 -9°C° 0 mm 1 mps 741 mmHg 81%
12:00 -8°C° 0 mm 1 mps 740 mmHg 79%
13:00 -7°C° 0 mm 1 mps 740 mmHg 78%
14:00 -7°C° 0 mm 1 mps 740 mmHg 81%
15:00 -8°C° 0 mm 1 mps 740 mmHg 85%
16:00 -9°C° 0 mm 1 mps 740 mmHg 88%
17:00 -9°C° 0 mm 1 mps 740 mmHg 88%
18:00 -9°C° 0 mm 1 mps 740 mmHg 87%
19:00 -9°C° 0 mm 1 mps 740 mmHg 87%
20:00 -8°C° 0 mm 1 mps 740 mmHg 88%
21:00 -9°C° 0 mm 2 mps 740 mmHg 89%
22:00 -8°C° 0 mm 2 mps 740 mmHg 91%
23:00 -8°C° 0.1 mm 2 mps 739 mmHg 92%

Day after tomorrow, 19 January, Tuesday

Time Temperature Precipitation Wind Pressure Humidity
00:00 -7°C° 0.1 mm 2 mps 739 mmHg 93%
01:00 -8°C° 0.1 mm 3 mps 739 mmHg 94%
02:00 -7°C° 0.2 mm 3 mps 739 mmHg 95%
03:00 -6°C° 0.2 mm 3 mps 738 mmHg 95%
04:00 -7°C° 0.2 mm 4 mps 738 mmHg 95%
05:00 -5°C° 0.2 mm 4 mps 738 mmHg 95%
06:00 -5°C° 0.2 mm 4 mps 738 mmHg 95%
07:00 -5°C° 0.2 mm 4 mps 738 mmHg 95%
08:00 -4°C° 0.1 mm 4 mps 738 mmHg 95%
09:00 -3°C° 0.1 mm 4 mps 737 mmHg 95%
10:00 -3°C° 0.1 mm 4 mps 737 mmHg 95%
11:00 -2°C° 0.1 mm 4 mps 737 mmHg 95%
12:00 -2°C° 0.1 mm 4 mps 737 mmHg 95%
13:00 -1°C° 0.1 mm 4 mps 736 mmHg 95%
14:00 -1°C° 0 mm 3 mps 736 mmHg 92%
15:00 -1°C° 0 mm 3 mps 735 mmHg 90%
16:00 -1°C° 0 mm 3 mps 735 mmHg 87%
17:00 -1°C° 0 mm 3 mps 735 mmHg 88%
18:00 -1°C° 0 mm 3 mps 735 mmHg 89%
19:00 -1°C° 0 mm 3 mps 735 mmHg 90%
20:00 -1°C° 0.2 mm 3 mps 734 mmHg 92%
21:00 -1°C° 0.2 mm 3 mps 734 mmHg 93%
22:00 -1°C° 0.2 mm 3 mps 734 mmHg 95%
23:00 -1°C° 0.6 mm 3 mps 733 mmHg 95%

20 January, Wednesday

Time Temperature Precipitation Wind Pressure Humidity
00:00 -2°C° 0.6 mm 4 mps 733 mmHg 96%
01:00 -1°C° 0.6 mm 4 mps 733 mmHg 96%
02:00 -1°C° 0.5 mm 4 mps 733 mmHg 96%
03:00 0°C° 0.5 mm 4 mps 733 mmHg 96%
04:00 0°C° 0.5 mm 5 mps 733 mmHg 96%
05:00 0°C° 0 mm 4 mps 733 mmHg 94%
06:00 0°C° 0 mm 4 mps 733 mmHg 93%
07:00 0°C° 0 mm 4 mps 733 mmHg 91%
08:00 0°C° 0 mm 4 mps 733 mmHg 93%
09:00 +1°C° 0 mm 3 mps 734 mmHg 95%
10:00 +1°C° 0 mm 3 mps 734 mmHg 97%
11:00 +2°C° 0 mm 3 mps 734 mmHg 97%
12:00 +2°C° 0 mm 3 mps 734 mmHg 97%
13:00 +2°C° 0 mm 3 mps 734 mmHg 97%
14:00 +2°C° 0 mm 3 mps 734 mmHg 92%
15:00 +2°C° 0 mm 3 mps 733 mmHg 87%
16:00 +1°C° 0 mm 3 mps 733 mmHg 82%
17:00 +2°C° 0 mm 2 mps 733 mmHg 80%
18:00 +1°C° 0 mm 2 mps 734 mmHg 79%
19:00 +1°C° 0 mm 2 mps 734 mmHg 78%
20:00 -1°C° 0 mm 2 mps 734 mmHg 77%
21:00 -1°C° 0 mm 2 mps 733 mmHg 77%
22:00 -2°C° 0 mm 2 mps 733 mmHg 77%
23:00 0°C° 0 mm 1 mps 733 mmHg 78%

21 January, Thursday

Time Temperature Precipitation Wind Pressure Humidity
00:00 0°C° 0 mm 1 mps 733 mmHg 79%
01:00 0°C° 0 mm 1 mps 733 mmHg 80%
02:00 0°C° 0 mm 1 mps 733 mmHg 82%
03:00 -1°C° 0 mm 1 mps 732 mmHg 83%
04:00 -1°C° 0 mm 1 mps 732 mmHg 85%
05:00 -1°C° 0 mm 1 mps 732 mmHg 85%
06:00 0°C° 0 mm 1 mps 731 mmHg 86%
07:00 0°C° 0 mm 1 mps 731 mmHg 86%
08:00 -1°C° 0 mm 2 mps 731 mmHg 88%
09:00 +1°C° 0 mm 2 mps 731 mmHg 90%
10:00 +3°C° 0 mm 2 mps 730 mmHg 92%
11:00 +3°C° 0 mm 2 mps 730 mmHg 94%
12:00 +3°C° 0 mm 3 mps 730 mmHg 95%
13:00 +3°C° 0 mm 3 mps 729 mmHg 97%
14:00 +4°C° 0 mm 2 mps 729 mmHg 95%
15:00 +3°C° 0 mm 2 mps 729 mmHg 92%
16:00 +3°C° 0 mm 2 mps 729 mmHg 90%
17:00 +2°C° 0 mm 2 mps 729 mmHg 90%
18:00 +1°C° 0 mm 3 mps 729 mmHg 90%
19:00 +1°C° 0 mm 3 mps 730 mmHg 89%
20:00 +1°C° 0 mm 3 mps 730 mmHg 89%
21:00 +1°C° 0 mm 3 mps 731 mmHg 89%
22:00 +1°C° 0 mm 3 mps 731 mmHg 89%
23:00 +1°C° 0 mm 3 mps 731 mmHg 89%

22 January, Friday

Time Temperature Precipitation Wind Pressure Humidity
00:00 +2°C° 0 mm 2 mps 731 mmHg 89%
01:00 +3°C° 0 mm 1 mps 731 mmHg 89%
02:00 +3°C° 0 mm 1 mps 731 mmHg 89%
03:00 +3°C° 0 mm 1 mps 731 mmHg 89%
04:00 +3°C° 0 mm 1 mps 730 mmHg 89%
05:00 +3°C° 0 mm 1 mps 730 mmHg 89%
06:00 +2°C° 0 mm 2 mps 730 mmHg 89%
07:00 +2°C° 0 mm 2 mps 729 mmHg 89%
08:00 +2°C° 0 mm 2 mps 729 mmHg 91%
09:00 +3°C° 0 mm 2 mps 728 mmHg 93%
10:00 +3°C° 0 mm 2 mps 728 mmHg 95%
11:00 +3°C° 0 mm 2 mps 727 mmHg 96%
12:00 +4°C° 0 mm 2 mps 727 mmHg 97%
13:00 +4°C° 0 mm 2 mps 726 mmHg 98%
14:00 +4°C° 0 mm 2 mps 726 mmHg 97%
15:00 +4°C° 0 mm 2 mps 725 mmHg 96%
16:00 +3°C° 0 mm 2 mps 725 mmHg 95%
17:00 +3°C° 0 mm 2 mps 725 mmHg 94%
18:00 +3°C° 0 mm 2 mps 724 mmHg 92%
19:00 +3°C° 0 mm 2 mps 724 mmHg 91%
20:00 +4°C° 0 mm 1 mps 724 mmHg 91%
21:00 +4°C° 0 mm 1 mps 724 mmHg 91%
22:00 +4°C° 0 mm 1 mps 724 mmHg 91%
23:00 +4°C° 0 mm 1 mps 724 mmHg 91%
Show more